Tracking 30106 objects as of 23-Jan-2025
HD Live streaming from Space Station
objects crossing your sky now

FALCON 9 R/B

Track FALCON 9 R/B now!


NORAD ID: 52818
Int'l Code: 2022-061B
Perigee: 270.2 km
Apogee: 43,856.8 km
Inclination: 17.6 °
Period: 795.3 minutes
Semi major axis: 28434 km
RCS: Unknown
Launch date: June 8, 2022
Source: United States (US)
Launch site: AIR FORCE EASTERN TEST RANGE (AFETR)

Note: This is a ROCKET BODY
Your satellite tracking list
Your tracking list is empty




NASA's NSSDC Master Catalog

Two Line Element Set (TLE):
1 52818U 22061B   25021.65044653  .00004441  00000-0  25340-2 0  9997
2 52818  17.6474 122.8599 7664372 336.1752   2.1417  1.81064716 17022
Source of the keplerian elements: AFSPC